Weather History for Greeley, CO

Change the Weather History Date:

Thursday, October 4, 2012

  Actual Average Record
Temperature  
Mean Temperature 40 °F -  
Max Temperature 46 °F 67 °F 87 °F (1997)
Min Temperature 35 °F 37 °F 28 °F (1999)
Degree Days  
Heating Degree Days 24    
Moisture  
Dew Point 23 °F    
Average Humidity 51    
Maximum Humidity 60    
Minimum Humidity 40    
Precipitation  
Precipitation 0.00 in - - ()
Sea Level Pressure  
Sea Level Pressure 30.32 in    
Wind  
Wind Speed 11 mph (NE)    
Max Wind Speed 24 mph    
Max Gust Speed 29 mph    
Visibility 10 miles    
Events      
Averages and records for this station are not official NWS values.
T = Trace of Precipitation, MM = Missing Value Source: NWS Daily Summary

Daily Weather History Graph

Daily Weather History Graph

Search for Another Location

Airport:

Trip Planner

Search our weather history database for the weather conditions in past years. The results will help you decide how hot, cold, wet, or windy it might be!

Date:

Astronomy

Oct. 04, 2012 Rise Set
Actual Time 6:58 AM MDT 6:34 PM MDT
Civil Twilight 6:31 AM MDT 7:02 PM MDT
Nautical Twilight 5:59 AM MDT 7:33 PM MDT
Astronomical Twilight 5:27 AM MDT 8:05 PM MDT
Moon 9:11 PM MDT (10/4) 11:18 AM MDT (10/4)
Length of Visible Light 12h 30m
Length of Day
11h 36m
Waning Gibbous, 81% of the Moon is Illuminated
Oct 4
Waning Gibbous
Oct 8
Last Quarter
Oct 15
New
Oct 21
First Quarter
Oct 29
Full

Hourly Weather History & Observations

Time (MDT) Temp. Windchill Dew Point Humidity Pressure Visibility Wind Dir Wind Speed Gust Speed Precip Events Conditions
12:15 AM 41.0 °F 32.2 °F 23.0 °F 49% 30.35 in 10.0 mi NNE 18.4 mph 23.0 mph N/A   Overcast
12:35 AM 39.2 °F 30.5 °F 23.0 °F 52% 30.35 in 10.0 mi North 16.1 mph 25.3 mph N/A   Overcast
12:55 AM 39.2 °F 29.8 °F 23.0 °F 52% 30.35 in 10.0 mi North 18.4 mph 23.0 mph N/A   Overcast
1:15 AM 39.2 °F 29.8 °F 23.0 °F 52% 30.35 in 10.0 mi North 18.4 mph 23.0 mph N/A   Overcast
1:35 AM 39.2 °F 28.5 °F 23.0 °F 52% 30.35 in 10.0 mi North 24.2 mph 28.8 mph N/A   Overcast
1:55 AM 39.2 °F 29.8 °F 23.0 °F 52% 30.35 in 10.0 mi North 18.4 mph 26.5 mph N/A   Overcast
2:15 AM 39.2 °F 30.2 °F 21.2 °F 49% 30.36 in 10.0 mi North 17.3 mph 25.3 mph N/A   Overcast
2:35 AM 39.2 °F 31.6 °F 23.0 °F 52% 30.36 in 10.0 mi North 12.7 mph - N/A   Overcast
2:55 AM 39.2 °F 30.5 °F 23.0 °F 52% 30.37 in 10.0 mi North 16.1 mph - N/A   Overcast
3:15 AM 39.2 °F 32.5 °F 23.0 °F 52% 30.37 in 10.0 mi NNE 10.4 mph - N/A   Overcast
3:35 AM 37.4 °F 29.8 °F 23.0 °F 56% 30.37 in 10.0 mi North 11.5 mph - N/A   Overcast
3:55 AM 37.4 °F 30.8 °F 23.0 °F 56% 30.37 in 10.0 mi NNE 9.2 mph - N/A   Overcast
4:15 AM 37.4 °F 31.4 °F 23.0 °F 56% 30.37 in 10.0 mi North 8.1 mph - N/A   Overcast
4:55 AM 37.4 °F 31.4 °F 23.0 °F 56% 30.37 in 10.0 mi NNE 8.1 mph - N/A   Overcast
5:15 AM 37.4 °F 30.8 °F 23.0 °F 56% 30.36 in 10.0 mi NNE 9.2 mph - N/A   Overcast
5:35 AM 37.4 °F 30.8 °F 24.8 °F 60% 30.36 in 10.0 mi NNE 9.2 mph - N/A   Overcast
5:55 AM 37.4 °F 29.3 °F 23.0 °F 56% 30.36 in 10.0 mi NNE 12.7 mph - N/A   Overcast
6:15 AM 37.4 °F 31.4 °F 23.0 °F 56% 30.36 in 10.0 mi NNE 8.1 mph - N/A   Overcast
6:35 AM 37.4 °F 30.8 °F 23.0 °F 56% 30.37 in 10.0 mi NNE 9.2 mph - N/A   Overcast
6:55 AM 37.4 °F 31.4 °F 21.2 °F 52% 30.37 in 10.0 mi North 8.1 mph - N/A   Overcast
7:35 AM 37.4 °F 30.3 °F 21.2 °F 52% 30.37 in 10.0 mi NNE 10.4 mph - N/A   Overcast
7:55 AM 37.4 °F 32.1 °F 21.2 °F 52% 30.37 in 10.0 mi North 6.9 mph - N/A   Overcast
8:15 AM 37.4 °F 31.4 °F 21.2 °F 52% 30.37 in 10.0 mi NNE 8.1 mph - N/A   Overcast
8:35 AM 37.4 °F 32.1 °F 21.2 °F 52% 30.37 in 10.0 mi NE 6.9 mph - N/A   Overcast
8:55 AM 37.4 °F 32.8 °F 21.2 °F 52% 30.37 in 10.0 mi ENE 5.8 mph - N/A   Overcast
9:36 AM 37.4 °F 31.4 °F 21.2 °F 52% 30.38 in 10.0 mi ENE 8.1 mph - N/A   Overcast
9:55 AM 37.4 °F 32.1 °F 23.0 °F 56% 30.38 in 10.0 mi ENE 6.9 mph - N/A   Overcast
10:15 AM 37.4 °F 32.1 °F 23.0 °F 56% 30.38 in 10.0 mi East 6.9 mph - N/A   Overcast
10:35 AM 37.4 °F 31.4 °F 21.2 °F 52% 30.38 in 10.0 mi East 8.1 mph - N/A   Overcast
10:55 AM 39.2 °F 33.6 °F 21.2 °F 49% 30.38 in 10.0 mi East 8.1 mph - N/A   Overcast
11:15 AM 39.2 °F 33.0 °F 23.0 °F 52% 30.38 in 10.0 mi ENE 9.2 mph - N/A   Overcast
11:55 AM 39.2 °F 33.6 °F 23.0 °F 52% 30.37 in 10.0 mi ESE 8.1 mph - N/A   Overcast
12:35 PM 41.0 °F 35.8 °F 23.0 °F 49% 30.35 in 10.0 mi ESE 8.1 mph - N/A   Overcast
12:55 PM 42.8 °F 37.5 °F 23.0 °F 46% 30.35 in 10.0 mi ESE 9.2 mph - N/A   Overcast
1:15 PM 42.8 °F 40.1 °F 23.0 °F 46% 30.34 in 10.0 mi East 4.6 mph - N/A   Overcast
1:35 PM 42.8 °F 41.1 °F 23.0 °F 46% 30.33 in 10.0 mi SSE 3.5 mph - N/A   Overcast
1:55 PM 42.8 °F 38.6 °F 23.0 °F 46% 30.32 in 10.0 mi East 6.9 mph - N/A   Overcast
2:15 PM 44.6 °F 43.1 °F 23.0 °F 43% 30.31 in 10.0 mi SSE 3.5 mph - N/A   Overcast
2:35 PM 42.8 °F 39.3 °F 21.2 °F 42% 30.30 in 10.0 mi NNE 5.8 mph - N/A   Overcast
2:55 PM 44.6 °F - 23.0 °F 43% 30.30 in 10.0 mi Calm Calm - N/A   Overcast
3:15 PM 44.6 °F 42.2 °F 23.0 °F 43% 30.29 in 10.0 mi NNE 4.6 mph - N/A   Mostly Cloudy
3:35 PM 44.6 °F 40.2 °F 23.0 °F 43% 30.29 in 10.0 mi East 8.1 mph - N/A   Partly Cloudy
3:55 PM 46.4 °F - 23.0 °F 40% 30.28 in 10.0 mi Calm Calm - N/A   Clear
4:15 PM 46.4 °F 45.2 °F 23.0 °F 40% 30.27 in 10.0 mi NNE 3.5 mph - N/A   Clear
4:35 PM 46.4 °F 44.3 °F 23.0 °F 40% 30.27 in 10.0 mi SE 4.6 mph - N/A   Clear
4:55 PM 44.6 °F - 23.0 °F 43% 30.27 in 10.0 mi Calm Calm - N/A   Partly Cloudy
5:15 PM 44.6 °F - 23.0 °F 43% 30.26 in 10.0 mi Calm Calm - N/A   Partly Cloudy
5:35 PM 44.6 °F - 23.0 °F 43% 30.26 in 10.0 mi Calm Calm - N/A   Clear
5:55 PM 46.4 °F - 23.0 °F 40% 30.26 in 10.0 mi Calm Calm - N/A   Clear
6:15 PM 44.6 °F 42.2 °F 23.0 °F 43% 30.27 in 10.0 mi North 4.6 mph - N/A   Clear
6:35 PM 42.8 °F 39.3 °F 24.8 °F 49% 30.25 in 5.0 mi NNE 5.8 mph - N/A   Clear
6:55 PM 41.0 °F 37.1 °F 23.0 °F 49% 30.26 in 10.0 mi North 5.8 mph - N/A   Clear
7:15 PM 39.2 °F 35.0 °F 23.0 °F 52% 30.26 in 10.0 mi North 5.8 mph - N/A   Clear
7:35 PM 37.4 °F 32.8 °F 23.0 °F 56% 30.26 in 10.0 mi North 5.8 mph - N/A   Clear
7:55 PM 37.4 °F 33.8 °F 24.8 °F 60% 30.26 in 10.0 mi North 4.6 mph - N/A   Clear
8:15 PM 35.6 °F 30.7 °F 23.0 °F 60% 30.26 in 10.0 mi North 5.8 mph - N/A   Clear
8:35 PM 37.4 °F 32.8 °F 24.8 °F 60% 30.26 in 10.0 mi North 5.8 mph - N/A   Partly Cloudy
8:55 PM 37.4 °F 32.8 °F 24.8 °F 60% 30.26 in 10.0 mi NNE 5.8 mph - N/A   Partly Cloudy
9:15 PM 37.4 °F 32.8 °F 24.8 °F 60% 30.27 in 10.0 mi North 5.8 mph - N/A   Clear
9:35 PM 37.4 °F 33.8 °F 24.8 °F 60% 30.27 in 10.0 mi North 4.6 mph - N/A   Scattered Clouds
9:55 PM 39.2 °F 35.9 °F 24.8 °F 56% 30.26 in 10.0 mi ENE 4.6 mph - N/A   Scattered Clouds
10:15 PM 39.2 °F 35.9 °F 24.8 °F 56% 30.25 in 10.0 mi East 4.6 mph - N/A   Mostly Cloudy
10:35 PM 39.2 °F 35.9 °F 24.8 °F 56% 30.26 in 10.0 mi ENE 4.6 mph - N/A   Mostly Cloudy
10:55 PM 39.2 °F 35.0 °F 24.8 °F 56% 30.25 in 10.0 mi ENE 5.8 mph - N/A   Mostly Cloudy
11:15 PM 39.2 °F 34.2 °F 23.0 °F 52% 30.26 in 10.0 mi ENE 6.9 mph - N/A   Scattered Clouds
11:35 PM 37.4 °F 32.1 °F 21.2 °F 52% 30.25 in 10.0 mi East 6.9 mph - N/A   Clear
11:55 PM 37.4 °F 30.8 °F 21.2 °F 52% 30.25 in 10.0 mi East 9.2 mph - N/A   Clear